Terminal Aerodrome Forecast
Issued by NWS Green Bay, WI

Home | Current Version | Previous Version | Text Only | Print | Product List | Glossary Off
Versions: 1 2 3 4 5 6 7 8 9 10 11 12 13 14 15 16 17 18 19 20 21 22 23 24 25 26 27 28 29 30 31 32 33 34

282
FTUS43 KGRB 211130
TAFGRB
TAF
KGRB 211130Z 2112/2212 05006KT P6SM BKN004
      TEMPO 2112/2114 3SM BR SCT004 BKN019
     FM211600 05009KT P6SM SCT008 BKN020
     FM212100 10005KT P6SM BKN030
     FM220000 10005KT P6SM FEW030 BKN120
     FM220500 16005KT P6SM BKN100
     FM220900 18005KT 4SM BR SCT120=

USA.gov is the U.S. government's official web portal to all federal, state and local government web resources and services.